[[{"header":{"parameterUnit":"m.s-1","parameterCategory":1,"la1":30.2991,"la2":30.254,"lo1":-89.0895,"lo2":-89.0444,"dx":0.0017,"dy":0.0017,"nx":28,"ny":28,"refTime":"2022-11-19T09:00:00:Z","depth":0,"parameterNumber":2,"parameterNumberName":"U-component_of_WINDS"},"data":[0,0,0,0,0,0,0,0,0,0,0,0,0,0,0,0,0,0,0,0,0,0,0,0,0,0,0,0,0,0,0,0,0,0,0,0,0,0,0,0,0,0,0,0,0,0,0,0,0,0,0,0,0,0,0,0,0,0,-3.9714,-3.9715,0,-3.9822,-3.9823,-3.9824,-3.9695,-3.9691,-3.9686,-3.9681,-3.9793,-3.9801,-3.9808,0,0,0,0,0,0,0,0,0,0,0,0,0,-3.9397,-3.9404,-3.9714,-3.9716,-3.9717,-3.9822,-3.9823,-3.9825,-3.9696,-3.969,-3.9685,-3.9679,-3.9791,-3.98,-3.9809,0,0,0,0,0,0,0,0,0,0,0,0,0,-3.9523,-3.9406,-3.9714,-3.9665,-3.9662,-3.9821,-3.9823,-3.9825,-3.9698,-3.969,-3.9683,-3.9676,-3.9788,-3.9799,-3.981,-4.0023,0,0,-3.9844,-3.9849,0,0,0,0,0,0,0,0,-3.9516,-3.9535,-3.9671,-3.9669,-3.9666,-3.9738,-3.9752,-3.9891,-3.9699,-3.9684,-3.9681,-3.9673,-3.9781,-3.9792,-3.9828,-4.0028,-4.0033,-3.9845,-3.9852,-3.9857,-3.986,0,0,0,0,0,0,0,-3.9507,-3.9529,-3.9757,-3.9673,-3.967,-3.9638,-3.9648,-3.9778,-3.9772,-3.9685,-3.9676,-3.969,-3.9778,-3.9818,-3.983,-4.0034,-3.9845,-3.9855,-3.9861,-3.9866,-4.0412,-4.042,0,0,0,0,0,0,-3.9504,-3.9523,-3.9753,-3.976,-3.9572,-3.965,-3.9661,-3.9722,-3.977,-3.977,-3.9696,-3.9684,-3.9802,-3.9817,-3.9833,-4.0085,-3.9856,-3.9867,-3.9873,-4.0405,-4.0414,-4.0423,0,0,0,0,0,0,-3.9498,-3.9526,-3.9749,-3.9639,-3.9665,-3.9663,-3.9733,-3.9728,-3.9767,-3.9778,-3.9776,-3.9738,-3.9797,-3.9818,-3.9976,-4.0087,-3.9872,-3.9882,-4.0395,-4.0408,-4.0418,-4.0592,0,0,0,0,0,0,-3.9489,-3.9525,-3.9606,-3.9642,-3.9671,-3.9891,-3.9739,-3.9735,-3.9787,-3.9772,-3.9817,-3.9818,-3.9793,-3.996,-3.9987,-4.0099,-3.9891,-4.0386,-4.0401,-4.0415,-4.0576,-4.0608,-4.0635,0,0,0,0,0,-3.9479,-3.9651,-3.9611,-3.9639,-3.9773,-3.9897,-3.9914,-3.9882,-3.9796,-3.9878,-3.9884,-3.9816,-4.007,-3.9977,-4.0007,-4.0124,-4.0378,-4.0397,-4.0414,-4.0563,-4.0602,-4.0634,0,0,0,0,0,0,-3.9629,-3.9655,-3.961,-3.9799,-3.9847,-3.9875,-3.9977,-3.9924,-3.9998,-3.9981,-3.9937,-3.9948,-4.0117,-4.0136,-4.0032,-4.0331,-4.021,-4.0235,-4.0314,-4.0351,-4.038,-4.0373,-3.99,0,0,0,0,0,-3.9684,-3.9783,-3.98,-3.9965,-3.9991,-3.9981,-4.0034,-4.0004,-4.0052,-4.0072,-4.009,-4.0139,-4.023,-4.0291,-4.0375,-4.0577,-4.0585,-4.0672,-4.0701,-4.0725,-4.0748,-4.0855,-4.0894,-4.048,-4.048,-4.048,0,0,-3.9799,-3.9825,-3.9891,-3.9996,-4.0029,-4.0133,-3.9998,-4.0114,-4.019,-4.0089,-4.024,-4.0255,-4.0307,-4.0489,-4.0569,-4.0509,-4.0863,-4.0748,-4.0767,-4.0776,-4.0877,-4.0917,-4.0951,-4.0492,-4.049,-4.0488,0,0,-4.0062,-4.0091,-4.0232,-4.0268,-4.032,-4.0311,-4.0345,-4.0381,-4.0387,-4.0537,-4.0463,-4.0553,-4.071,-4.075,-4.0791,-4.1067,-4.1007,-4.1095,-4.1251,-4.1356,-4.1389,-4.1417,-4.1516,-4.1552,-4.1117,-4.1117,-4.1118,0,-4.0199,-4.0352,-4.0311,-4.0432,-4.048,-4.0392,-4.0534,-4.0571,-4.0648,-4.0683,-4.0614,-4.0809,-4.0838,-4.1027,-4.1094,-4.113,-4.1167,-4.1091,-4.1387,-4.1416,-4.1442,-4.1536,-4.1573,-4.1128,-4.1126,-4.1125,-4.1124,0,-4.0517,-4.0625,-4.0732,-4.0808,-4.0868,-4.0999,-4.0978,-4.1043,-4.1008,-4.1007,-4.116,-4.1191,-4.128,-4.1322,-4.1289,-4.1506,-4.1467,-4.1394,-4.1272,-4.1492,-4.158,-4.1615,-4.1143,-4.1139,-4.1136,-4.1133,0,0,-4.0881,-4.0931,-4.0971,-4.1004,-4.1054,-4.1136,-4.1262,-4.1348,-4.1405,-4.146,-4.1565,-4.1699,-4.1631,-4.1677,-4.1647,-4.174,-4.1956,-4.1654,-4.1655,-4.171,-4.2198,-4.2255,-4.2297,-4.1916,-4.1922,-4.1928,-4.2194,0,-4.1145,-4.1364,-4.133,-4.1541,-4.164,-4.1556,-4.1665,-4.1708,-4.1709,-4.1792,-4.1793,-4.1889,-4.1791,-4.1819,-4.1906,-4.1912,-4.2054,-4.1892,-4.2014,-4.2019,-4.2006,-4.2343,-4.2403,-4.2653,-4.2228,-4.2234,-4.2238,0,-4.1483,-4.155,-4.1772,-4.1804,-4.1844,-4.1944,-4.2019,-4.2099,-4.2145,-4.2139,-4.219,-4.2143,-4.2268,-4.2143,-4.2315,-4.2205,-4.2252,-4.2263,-4.2271,-4.2283,-4.2143,-4.2365,-4.2732,-4.2771,-4.2291,-4.2287,-4.2283,0,-4.1728,-4.1873,-4.2024,-4.2054,-4.2097,-4.2168,-4.2189,-4.2227,-4.2281,-4.2346,-4.238,-4.2459,-4.2503,-4.2566,-4.2541,-4.2451,-4.2718,-4.259,-4.2718,-4.2719,-4.278,-4.2777,-4.3162,-4.2808,-4.2807,-4.2807,-4.2806,0,-4.2028,-4.2166,-4.2134,-4.2227,-4.238,-4.2339,-4.2491,-4.2501,-4.2536,-4.2629,-4.256,-4.265,-4.261,-4.2697,-4.2678,-4.2824,-4.2844,-4.2843,-4.2837,-4.285,-4.2851,-4.2882,-4.2865,-4.2816,-4.2814,-4.2812,-4.2811,0,-4.2328,-4.2311,-4.247,-4.2496,-4.2506,-4.2618,-4.264,-4.2727,-4.2721,-4.284,-4.2866,-4.2858,-4.2956,-4.2936,-4.3044,-4.3031,-4.3214,-4.3186,-4.3199,-4.3193,-4.3322,-4.3311,-4.3742,-4.3797,-4.3407,-4.3411,-4.3414,0,-4.2521,-4.2626,-4.2662,-4.272,-4.2746,-4.2839,-4.2893,-4.2855,-4.2914,-4.2972,-4.3053,-4.3144,-4.3215,-4.3375,-4.338,-4.3461,-4.3435,-4.358,-4.3447,-4.3457,-4.3438,-4.3433,-4.3443,-4.3608,-4.3612,-4.3616,-4.3619,0,-4.2866,-4.2852,-4.2932,-4.3009,-4.3075,-4.3134,-4.3186,-4.3237,-4.3204,-4.3273,-4.3371,-4.3427,-4.3536,-4.3628,-4.3703,-4.3724,-4.3667,-4.366,-4.3694,-4.371,-4.3714,-4.3715,-4.3273,-4.3651,-4.3648,-4.3645,-4.3644,-4.3642,-4.312,-4.3208,-4.3248,-4.3339,-4.3374,-4.3424,-4.3506,-4.3511,-4.3592,-4.3678,-4.3651,-4.3763,-4.3804,-4.39,-4.3929,-4.4016,-4.3962,-4.4011,-4.4024,-4.4037,-4.4053,-4.3699,-4.403,-4.4029,-4.4028,-4.4027,-4.4026,0,-4.3462,-4.3483,-4.3566,-4.3641,-4.3713,-4.365,-4.3704,-4.3768,-4.3868,-4.3911,-4.3982,-4.4095,-4.4183,-4.4193,-4.4276,-4.4344,-4.432,-4.4367,-4.4363,-4.4368,-4.4097,-4.406,-4.4385,-4.4385,-4.4385,-4.4385,-4.4385,-4.4385,-4.3649,-4.3796,-4.3787,-4.395,-4.3969,-4.4079,-4.4115,-4.416,-4.4194,-4.4323,-4.4396,-4.4401,-4.4431,-4.4515,-4.4593,-4.4593,-4.4627,-4.4686,-4.4676,-4.4423,-4.4387,-4.4353,-4.4318,-4.4693,-4.4693,-4.494,-4.4943,-4.4944]},{"header":{"parameterUnit":"m.s-1","parameterCategory":1,"la1":30.2991,"la2":30.254,"lo1":-89.0895,"lo2":-89.0444,"dx":0.0017,"dy":0.0017,"nx":28,"ny":28,"refTime":"2022-11-19T09:00:00:Z","depth":0,"parameterNumber":3,"parameterNumberName":"V-component_of_WINDS"},"data":[0,0,0,0,0,0,0,0,0,0,0,0,0,0,0,0,0,0,0,0,0,0,0,0,0,0,0,0,0,0,0,0,0,0,0,0,0,0,0,0,0,0,0,0,0,0,0,0,0,0,0,0,0,0,0,0,0,0,-5.2703,-5.2704,0,-5.2788,-5.2789,-5.279,-5.2715,-5.2712,-5.2709,-5.2706,-5.2788,-5.2793,-5.2798,0,0,0,0,0,0,0,0,0,0,0,0,0,-5.2471,-5.2475,-5.2703,-5.2704,-5.2705,-5.2788,-5.2789,-5.279,-5.2715,-5.2712,-5.2708,-5.2705,-5.2786,-5.2792,-5.2798,0,0,0,0,0,0,0,0,0,0,0,0,0,-5.2565,-5.2477,-5.2703,-5.2678,-5.2677,-5.2787,-5.2789,-5.279,-5.2716,-5.2712,-5.2707,-5.2703,-5.2784,-5.2792,-5.2799,-5.2937,0,0,-5.2822,-5.2825,0,0,0,0,0,0,0,0,-5.256,-5.2574,-5.2681,-5.268,-5.2679,-5.2736,-5.2737,-5.2839,-5.2717,-5.2701,-5.2706,-5.2701,-5.2774,-5.2782,-5.2808,-5.2941,-5.2944,-5.2823,-5.2827,-5.2831,-5.2833,0,0,0,0,0,0,0,-5.2553,-5.257,-5.2737,-5.2682,-5.2681,-5.2661,-5.2669,-5.2756,-5.2762,-5.2702,-5.2697,-5.2708,-5.2773,-5.2801,-5.2809,-5.2946,-5.2823,-5.2829,-5.2834,-5.2837,-5.3193,-5.3197,0,0,0,0,0,0,-5.255,-5.2565,-5.2734,-5.2739,-5.2607,-5.2669,-5.2678,-5.2722,-5.2761,-5.2763,-5.2712,-5.2704,-5.279,-5.2801,-5.2812,-5.2974,-5.283,-5.2838,-5.2842,-5.3188,-5.3194,-5.3199,0,0,0,0,0,0,-5.2546,-5.2566,-5.273,-5.2651,-5.267,-5.2678,-5.2728,-5.2726,-5.2755,-5.2769,-5.2769,-5.274,-5.2787,-5.2801,-5.2906,-5.2976,-5.2841,-5.2848,-5.3182,-5.319,-5.3196,-5.3301,0,0,0,0,0,0,-5.2539,-5.2565,-5.2619,-5.2652,-5.2675,-5.2826,-5.2732,-5.2731,-5.2768,-5.2759,-5.2795,-5.2796,-5.2785,-5.2895,-5.2914,-5.2984,-5.2854,-5.3176,-5.3185,-5.3194,-5.3292,-5.3311,-5.3328,0,0,0,0,0,-5.2531,-5.2645,-5.2622,-5.2643,-5.2743,-5.283,-5.2842,-5.2828,-5.2774,-5.2828,-5.2836,-5.2795,-5.2966,-5.2907,-5.2927,-5.3,-5.3171,-5.3183,-5.3193,-5.3283,-5.3307,-5.3328,0,0,0,0,0,0,-5.2619,-5.2649,-5.2624,-5.2753,-5.2789,-5.2817,-5.2884,-5.2854,-5.2906,-5.2895,-5.2873,-5.2881,-5.2992,-5.3006,-5.294,-5.3134,-5.3059,-5.3075,-5.3121,-5.3144,-5.3162,-5.3156,-5.286,0,0,0,0,0,-5.2653,-5.2723,-5.2745,-5.2856,-5.2876,-5.2877,-5.2914,-5.29,-5.2936,-5.2951,-5.2967,-5.3003,-5.3064,-5.3105,-5.3162,-5.3293,-5.3298,-5.3353,-5.3372,-5.3387,-5.34,-5.3468,-5.3492,-5.3236,-5.3235,-5.3235,0,0,-5.2725,-5.275,-5.2795,-5.2874,-5.2901,-5.2972,-5.2891,-5.297,-5.3021,-5.2963,-5.3063,-5.3076,-5.3113,-5.3232,-5.3284,-5.3247,-5.3472,-5.3401,-5.3413,-5.3418,-5.3482,-5.3506,-5.3527,-5.3243,-5.3242,-5.3241,0,0,-5.2891,-5.2918,-5.3012,-5.3041,-5.3083,-5.3082,-5.3105,-5.3137,-5.3144,-5.3244,-5.3201,-5.3261,-5.3367,-5.3395,-5.3424,-5.3598,-5.3561,-5.3617,-5.3712,-5.3779,-5.3799,-5.3817,-5.3877,-5.3899,-5.3631,-5.3631,-5.3631,0,-5.2974,-5.3081,-5.3064,-5.3146,-5.3181,-5.3132,-5.3226,-5.3253,-5.3311,-5.3335,-5.3293,-5.3424,-5.3447,-5.3569,-5.3612,-5.3637,-5.366,-5.3613,-5.3798,-5.3815,-5.3832,-5.3889,-5.3912,-5.3637,-5.3636,-5.3636,-5.3635,0,-5.318,-5.3255,-5.3325,-5.3383,-5.3426,-5.3513,-5.3507,-5.3552,-5.3533,-5.3537,-5.3637,-5.3662,-5.3722,-5.375,-5.3733,-5.387,-5.3846,-5.3801,-5.3725,-5.3863,-5.3916,-5.3938,-5.3646,-5.3644,-5.3642,-5.3641,0,0,-5.3405,-5.3452,-5.3478,-5.3502,-5.3544,-5.36,-5.3683,-5.3743,-5.3781,-5.3822,-5.389,-5.398,-5.3939,-5.3971,-5.3955,-5.4014,-5.4147,-5.3961,-5.3962,-5.3994,-5.4298,-5.433,-5.4356,-5.4124,-5.4128,-5.4131,-5.4294,0,-5.3571,-5.3719,-5.3705,-5.3844,-5.3911,-5.3864,-5.3937,-5.3969,-5.3974,-5.4029,-5.4033,-5.4097,-5.4039,-5.4057,-5.4113,-5.412,-5.4208,-5.4108,-5.4184,-5.4187,-5.4176,-5.4384,-5.4419,-5.4572,-5.4315,-5.4318,-5.4321,0,-5.3786,-5.3835,-5.3981,-5.401,-5.4038,-5.4104,-5.4156,-5.4211,-5.4244,-5.4243,-5.4279,-5.4252,-5.4334,-5.4257,-5.4367,-5.4299,-5.4329,-5.4337,-5.4342,-5.4348,-5.4262,-5.4394,-5.462,-5.4643,-5.4354,-5.4351,-5.4349,0,-5.3933,-5.4036,-5.4136,-5.4158,-5.4195,-5.4242,-5.4259,-5.4289,-5.4325,-5.437,-5.4393,-5.4446,-5.4476,-5.4517,-5.4504,-5.445,-5.4617,-5.4539,-5.4616,-5.4616,-5.4653,-5.4651,-5.4886,-5.4675,-5.4674,-5.4674,-5.4673,0,-5.412,-5.4211,-5.4202,-5.4263,-5.4362,-5.4344,-5.4442,-5.4453,-5.448,-5.454,-5.4503,-5.456,-5.4541,-5.4597,-5.4588,-5.4679,-5.4693,-5.4693,-5.4689,-5.4696,-5.4695,-5.4714,-5.4703,-5.468,-5.4679,-5.4677,-5.4676,0,-5.4301,-5.43,-5.4405,-5.4431,-5.444,-5.4511,-5.4532,-5.4589,-5.459,-5.4667,-5.4684,-5.4685,-5.4749,-5.4741,-5.4811,-5.4805,-5.4918,-5.4902,-5.4907,-5.4903,-5.498,-5.4972,-5.5235,-5.5267,-5.5036,-5.5039,-5.5041,0,-5.4421,-5.4489,-5.4522,-5.4561,-5.4582,-5.4645,-5.4681,-5.4665,-5.4704,-5.4747,-5.4797,-5.4857,-5.4905,-5.5008,-5.5013,-5.5066,-5.5051,-5.5139,-5.5058,-5.5062,-5.505,-5.5045,-5.5051,-5.5154,-5.5157,-5.5159,-5.5161,0,-5.4631,-5.4626,-5.4682,-5.4736,-5.4781,-5.4823,-5.486,-5.4893,-5.488,-5.4926,-5.4991,-5.5027,-5.5099,-5.5158,-5.5208,-5.5223,-5.5189,-5.5186,-5.5207,-5.5214,-5.5213,-5.5213,-5.4949,-5.518,-5.5178,-5.5177,-5.5176,-5.5175,-5.4784,-5.4842,-5.4874,-5.4936,-5.4962,-5.4998,-5.5052,-5.5059,-5.5114,-5.5172,-5.5158,-5.5231,-5.526,-5.5323,-5.5343,-5.5398,-5.5365,-5.5395,-5.5403,-5.541,-5.5418,-5.5205,-5.5407,-5.5406,-5.5406,-5.5405,-5.5405,0,-5.4991,-5.5009,-5.5066,-5.512,-5.5168,-5.5134,-5.5173,-5.5214,-5.5279,-5.531,-5.5357,-5.543,-5.5487,-5.5497,-5.555,-5.5592,-5.5578,-5.5606,-5.5603,-5.5606,-5.5445,-5.5422,-5.5617,-5.5617,-5.5617,-5.5617,-5.5617,-5.5617,-5.5105,-5.52,-5.5199,-5.5306,-5.5322,-5.5394,-5.5419,-5.5451,-5.5475,-5.5559,-5.5606,-5.5613,-5.5634,-5.5688,-5.5738,-5.5739,-5.576,-5.5794,-5.5789,-5.5639,-5.5618,-5.5597,-5.5575,-5.5799,-5.5799,-5.5945,-5.5946,-5.5947]}]]